Location: *
(36.7000°N, 45.1333°E)
Time: 16:11:57
(UTC+00:00)

Daily predictions for brighter satellites

Satellite Brightness Start Highest point End
(mag) Time Altitude Azimuth Time Altitude Azimuth Time Altitude Azimuth
SMAP 3.2 14:31:39 10° SSE 14:36:19 87° W 14:40:59 10° NNW
Cosmos 2154 Rocket 4.1 14:31:10 10° S 14:37:22 62° E 14:43:31 10° NNE
SKYMED 2 4.1 14:34:49 10° NNE 14:38:54 39° E 14:42:57 10° SSE
Cosmos 2237 Rocket 3.3 14:37:56 10° N 14:42:19 23° ENE 14:46:40 10° ESE
ERBS 2.7 14:39:27 10° SSW 14:42:39 45° SE 14:45:51 10° NE
Cosmos 2333 Rocket 2.2 14:37:10 10° NNW 14:42:52 66° ENE 14:48:28 10° SSE
Feng Yun 1-1 Rocket 4.5 14:39:39 10° SSE 14:45:17 83° WSW 14:51:08 10° NNW
Meteor 1-24 Rocket 4.1 14:41:08 10° SSW 14:46:22 63° W 14:51:41 10° N
Cosmos 1812 Rocket 3.8 14:46:39 10° N 14:50:58 47° E 14:55:17 10° SSE
CSL-04 Rocket 4.5 14:49:28 10° SE 14:54:07 30° ENE 14:58:50 10° N
YAOGAN 1 3.5 14:51:01 10° SE 14:54:36 26° ENE 14:58:12 10° NNE
Cosmos 1300 2.6 14:54:43 10° N 14:58:33 78° E 15:02:20 10° S
USA 234 3.5 14:53:25 10° SE 14:59:57 78° SW 15:06:30 10° NW
Shenzhou-11 Module 2.7 14:59:09 10° SW 15:01:37 32° SSE 15:03:13 17° E
SL-16 R/B 3.8 15:00:06 10° NNE 15:02:35 13° NE 15:03:18 13° ENE
Cosmos 2219 3.2 14:57:30 10° SSW 15:03:04 72° ESE 15:08:41 10° NNE
FengYun 1-2 T 4.2 14:59:34 10° SSE 15:05:07 68° ENE 15:10:45 10° N
USA 32 4.1 15:00:26 10° SSE 15:05:32 58° E 15:10:40 10° NNE
Cosmos 1340 Rocket 2.7 15:02:49 10° N 15:06:46 66° E 15:10:43 10° SSE
NOAA 12 4.5 15:02:28 10° S 15:07:39 69° WSW 15:12:53 10° NNW
Cosmos-2242 3.9 15:04:14 10° NNE 15:07:54 26° ENE 15:11:30 10° SE
DELTA 2 R/B (1) 3.6 15:03:16 10° WSW 15:08:52 86° NNW 15:13:16 17° ENE
Cosmos 1242 Rocket 4.4 15:05:53 10° SW 15:08:59 30° WNW 15:12:09 10° NNW
Cosmos 1626 3.6 15:08:03 10° SSW 15:11:31 38° W 15:15:00 10° N
CZ-4C R/B 3.0 15:04:38 10° NNW 15:12:04 66° NE 15:20:22 10° SE
Cosmos 1602 Rocket 4.4 15:08:55 10° SSW 15:13:12 52° W 15:17:29 10° N
Cosmos 962 Rocket 4.4 15:07:20 10° S 15:13:24 76° E 15:19:32 10° N
YAOGAN 6 2.7 15:10:04 10° S 15:13:45 81° WSW 15:17:27 10° NNW
BREEZE-M DEB (TANK) 4.3 15:08:51 10° SSW 15:13:59 33° SE 15:15:31 20° E
Cosmos 1455 3.4 15:11:42 10° NNE 15:14:38 21° ENE 15:17:31 10° SE
Cosmos 1461 3.4 15:12:10 10° NW 15:16:32 67° WSW 15:21:03 10° SSE
Cosmos 2297 Rocket 2.2 15:13:02 10° S 15:18:37 66° ESE 15:24:14 10° NNE
Cosmos 1939 Rocket 3.3 15:19:42 10° SE 15:23:16 37° ENE 15:26:54 10° N
Cosmos 1980 3.8 15:19:03 10° NNW 15:24:38 54° ENE 15:30:10 10° SE
Cosmos 1953 Rocket 3.8 15:20:31 10° SSE 15:24:47 46° E 15:29:05 10° NNE
Nadezhda 3 Rocket 4.4 15:19:04 10° NNW 15:25:19 70° W 15:31:35 10° S
COSMO-SKYMED 1 3.3 15:22:45 10° N 15:27:00 55° WNW 15:31:14 10° SSW
Meteor 2-1 Rocket 4.2 15:24:27 10° N 15:29:58 86° W 15:35:32 10° S
Cosmos 1758 Rocket 3.5 15:25:44 10° S 15:30:03 84° W 15:34:22 10° N
Okean-O 3.8 15:25:52 10° S 15:30:06 45° W 15:34:22 10° NNW
Cosmos 2227 Rocket 2.1 15:25:05 10° SSW 15:30:43 77° ESE 15:36:14 11° NNE
NOAA 11 4.1 15:26:57 10° SSE 15:32:21 63° ENE 15:37:47 10° N
H-2A ROCKET BODY 3.2 15:24:09 10° W 15:33:07 34° SSW 15:35:41 15° SE
NOSS 0 Rocket 3.9 15:28:14 10° NNW 15:34:29 90° ENE 15:40:40 10° SSE
Cosmos 2219 Rocket 3.4 15:30:43 10° NW 15:36:05 45° WSW 15:41:24 10° S
COSMOS 2428 3.9 15:32:43 10° NW 15:38:10 45° WSW 15:43:33 10° S
Cosmos 2341 Rocket 4.3 15:34:26 10° SSW 15:40:48 72° W 15:47:10 10° N
SL-8 Rocket 4.0 15:37:02 10° S 15:43:21 86° E 15:49:40 10° N
Cosmos 1269 Rocket 4.0 15:44:11 10° NNW 15:49:29 83° WSW 15:54:45 10° SSE
Cosmos 1703 3.1 15:46:17 10° S 15:50:11 69° E 15:51:24 42° NNE
CZ-4 R/B 2.3 15:46:32 10° S 15:50:23 49° W 15:54:21 10° NNW
ADEOS Rocket 3.3 15:46:08 10° NNE 15:52:45 64° ESE 16:00:02 10° S
ISS -3.5 15:50:21 10° WSW 15:53:40 62° NW 15:53:53 60° NNW
Atlas Centaur 2 3.4 15:50:04 10° SSW 15:54:28 27° SSE 15:56:09 24° SE
Cosmos 44 3.0 15:53:45 10° SSW 15:58:26 90° E 15:59:45 47° NNE
SL-8 R/B 3.9 15:54:48 10° WSW 15:59:35 66° NNW 16:00:54 45° NNE
Meteor 2-10 Rocket 3.5 16:06:54 10° N 16:12:13 81° W 16:17:19 10° S
SL-08 R/B 4.4 16:06:07 10° S 16:12:21 79° E 16:18:43 10° N
Cosmos 2218 Rocket 4.4 16:07:56 10° SSW 16:14:09 65° W 16:20:31 10° N
FALCON 9 R/B 3.6 15:58:38 10° SW 16:14:41 40° SSE 16:16:49 33° SE
IRS-1A Rocket 4.2 16:13:48 10° SSE 16:19:36 73° ENE 16:25:19 10° N
Ariane Rocket 2.8 16:15:39 10° SSE 16:20:42 82° ENE 16:25:47 10° NNW
Haruka 3.5 16:18:45 10° WSW 16:21:54 42° S 16:21:54 42° S
Meteor 1-11 4.1 16:18:12 10° S 16:23:50 85° W 16:26:09 37° N
Cosmos 2237 Rocket 3.1 16:21:13 10° NW 16:26:35 47° WSW 16:31:54 10° S
SL-16 R/B 3.1 16:41:47 10° NNW 16:45:16 39° NNW 16:45:16 39° NNW
DELTA 2 R/B (1) 4.4 16:50:01 10° W 16:54:02 45° WNW 16:54:02 45° WNW
